Latest Weather Observations for Edinburgh

IDS60901

Issued at 10:31 am CDT Saturday 25 March 2017 (issued every 10 minutes, with the page automatically refreshed every 10 minutes)

About weather observations | Map of Adelaide area stations | Latest observations for Adelaide area | Other Formats
Station Details ID: 023083 Name: EDINBURGH RAAF Lat: -34.71 Lon: 138.62 Height: 16.54 m
Data from the previous 72 hours. | See also: Recent months at Edinburgh
Date/Time
CDT
Temp
°C
App
Temp
°C
Dew
Point
°C
Rel
Hum
%
Delta-T
°C
Wind Press
QNH
hPa
Press
MSL
hPa
Rain since
9am
mm
Dir  Spd
km/h
Gust
km/h
Spd
kts
Gust
kts
25/10:30am 23.0 24.5 17.5 71 3.4 WSW 6 9 3 5 1014.2 1014.1 0.0
25/10:00am 22.5 24.6 17.2 72 3.3 NNE 2 6 1 3 1013.7 1013.6 0.0
25/09:30am 21.5 22.2 16.2 72 3.2 N 7 9 4 5 1013.7 1013.6 0.0
25/09:11am 21.3 22.1 15.8 71 3.3 NNE 6 7 3 4 1013.5 1013.4 0.0
25/09:00am 21.0 22.4 15.3 70 3.4 NNE 2 9 1 5 1013.3 1013.2 0.0
25/08:30am 19.8 21.1 14.2 70 3.2 CALM 0 0 0 0 1013.5 1013.4 0.0
25/08:00am 19.0 20.1 13.6 71 3.1 CALM 0 0 0 0 1013.1 1013.0 0.0
25/07:35am 18.3 19.4 13.4 73 2.8 CALM 0 0 0 0 1012.8 1012.7 0.0
25/07:30am 18.3 19.4 13.4 73 2.8 CALM 0 0 0 0 1012.7 1012.6 0.0
25/07:00am 17.7 17.0 13.2 75 2.5 NNW 9 9 5 5 1012.2 1012.1 0.0
25/06:30am 17.9 17.2 13.2 74 2.6 N 9 11 5 6 1011.9 1011.8 0.0
25/06:00am 18.1 17.4 13.2 73 2.8 N 9 11 5 6 1011.7 1011.6 0.0
25/05:30am 18.7 17.8 13.6 72 2.9 NNE 11 13 6 7 1011.3 1011.2 0.0
25/05:00am 19.3 18.5 13.9 71 3.1 NE 11 13 6 7 1011.0 1010.9 0.0
25/04:30am 19.7 18.9 13.9 69 3.3 NE 11 13 6 7 1010.9 1010.8 0.0
25/04:00am 19.4 18.2 14.0 71 3.1 NE 13 13 7 7 1011.0 1010.9 0.0
25/03:30am 19.9 19.1 14.0 69 3.4 NE 11 13 6 7 1011.1 1011.0 0.0
25/03:00am 20.1 18.9 14.0 68 3.5 NE 13 13 7 7 1011.4 1011.3 0.0
25/02:30am 20.2 19.6 13.6 66 3.8 NNE 9 11 5 6 1011.7 1011.6 0.0
25/02:00am 20.9 20.0 13.6 63 4.2 NNW 11 13 6 7 1011.9 1011.8 0.0
25/01:30am 21.0 21.0 13.7 63 4.2 NNW 6 7 3 4 1011.7 1011.6 0.0
25/01:00am 21.7 20.5 13.9 61 4.5 NNE 13 13 7 7 1011.4 1011.3 0.0
25/12:30am 23.7 23.3 14.1 55 5.6 N 9 13 5 7 1011.6 1011.5 0.0
25/12:00am 23.8 22.7 14.2 55 5.7 NNE 13 15 7 8 1011.7 1011.6 0.0
 
Date/Time
CDT
Temp
°C
App
Temp
°C
Dew
Point
°C
Rel
Hum
%
Delta-T
°C
Wind Press
QNH
hPa
Press
MSL
hPa
Rain since
9am
mm
Dir  Spd
km/h
Gust
km/h
Spd
kts
Gust
kts
24/11:30pm 23.3 23.2 14.0 56 5.5 NE 7 7 4 4 1012.0 1011.9 0.0
24/11:00pm 23.8 24.2 13.6 52 5.9 NE 4 11 2 6 1012.4 1012.3 0.0
24/10:30pm 23.9 25.0 14.6 56 5.5 S 2 9 1 5 1012.6 1012.5 0.0
24/10:00pm 23.6 23.7 14.0 55 5.6 WSW 6 9 3 5 1012.5 1012.4 0.0
24/09:30pm 25.2 25.0 13.7 49 6.8 S 7 9 4 5 1012.4 1012.3 0.0
24/09:00pm 26.1 26.2 13.9 47 7.2 S 6 9 3 5 1012.3 1012.2 0.0
24/08:30pm 26.4 26.4 14.2 47 7.3 S 7 11 4 6 1012.1 1012.0 0.0
24/08:00pm 26.8 26.1 14.2 46 7.5 SSW 11 15 6 8 1011.9 1011.8 0.0
24/07:30pm 27.5 26.1 13.4 41 8.3 SW 13 15 7 8 1011.7 1011.6 0.0
24/07:00pm 28.8 27.6 12.7 37 9.5 SW 11 15 6 8 1011.6 1011.5 0.0
24/06:30pm 30.3 28.8 11.8 32 10.8 SSW 11 15 6 8 1011.1 1011.0 0.0
24/06:00pm 30.9 28.8 12.3 32 11.0 SW 15 19 8 10 1011.4 1011.3 0.0
24/05:30pm 32.0 29.1 12.3 30 11.7 SW 19 24 10 13 1011.3 1011.2 0.0
24/05:00pm 31.4 29.2 13.2 33 10.9 SW 17 24 9 13 1011.5 1011.4 0.0
24/04:30pm 31.5 29.7 13.3 33 10.9 S 15 20 8 11 1011.5 1011.4 0.0
24/04:00pm 30.7 27.6 13.5 35 10.3 WSW 22 28 12 15 1011.5 1011.4 0.0
24/03:30pm 31.2 27.2 13.0 33 10.9 WSW 26 32 14 17 1011.4 1011.3 0.0
24/03:00pm 31.0 27.1 13.3 34 10.6 WSW 26 30 14 16 1011.4 1011.3 0.0
24/02:30pm 32.9 30.8 13.5 30 11.7 W 17 24 9 13 1011.6 1011.5 0.0
24/02:00pm 31.6 29.3 12.9 32 11.1 ENE 17 26 9 14 1012.1 1012.0 0.0
24/01:30pm 31.0 28.1 12.4 32 11.0 NE 19 30 10 16 1012.3 1012.2 0.0
24/01:00pm 30.4 28.0 13.7 36 10.0 NNE 19 24 10 13 1012.9 1012.8 0.0
24/12:30pm 30.1 28.0 14.6 39 9.4 NE 19 28 10 15 1013.4 1013.3 0.0
24/12:00pm 29.0 25.5 14.4 41 8.8 NE 26 32 14 17 1013.6 1013.5 0.0
24/11:30am 28.6 25.1 15.5 45 8.0 NE 28 32 15 17 1013.9 1013.8 0.0
24/11:00am 28.1 24.9 15.4 46 7.8 NE 26 33 14 18 1014.3 1014.2 0.0
24/10:30am 27.3 24.6 15.7 49 7.1 NE 24 32 13 17 1014.5 1014.4 0.0
24/10:00am 26.2 24.2 15.6 52 6.5 NE 20 24 11 13 1014.7 1014.6 0.0
24/09:30am 25.0 22.6 15.3 55 5.8 NE 22 32 12 17 1014.8 1014.7 0.0
24/09:00am 24.2 22.3 15.1 56 5.4 ENE 19 30 10 16 1014.4 1014.3 0.0
24/08:30am 22.6 20.4 14.4 60 4.8 ENE 19 26 10 14 1014.4 1014.3 0.0
24/08:00am 22.1 20.6 14.2 61 4.6 ENE 15 20 8 11 1014.6 1014.5 0.0
24/07:30am 21.7 20.1 13.9 61 4.5 ENE 15 22 8 12 1014.3 1014.2 0.0
24/07:00am 22.0 19.9 13.6 59 4.9 ENE 17 22 9 12 1014.3 1014.2 0.0
24/06:30am 22.1 19.6 13.5 58 5.0 ENE 19 30 10 16 1013.9 1013.8 0.0
24/06:00am 22.3 19.8 13.4 57 5.1 E 19 30 10 16 1014.3 1014.2 0.0
24/05:30am 22.2 20.0 13.3 57 5.1 ENE 17 26 9 14 1014.0 1013.9 0.0
24/05:00am 22.3 20.0 13.1 56 5.3 ENE 17 24 9 13 1013.9 1013.8 0.0
24/04:30am 22.6 20.0 13.1 55 5.5 E 19 30 10 16 1013.9 1013.8 0.0
24/04:00am 22.7 20.0 12.9 54 5.6 E 19 30 10 16 1013.7 1013.6 0.0
24/03:30am 22.8 19.6 13.0 54 5.6 E 22 32 12 17 1013.9 1013.8 0.0
24/03:00am 23.1 19.9 13.0 53 5.8 E 22 32 12 17 1014.1 1014.0 0.0
24/02:30am 23.3 20.5 13.2 53 5.8 ESE 20 32 11 17 1014.7 1014.6 0.0
24/02:00am 22.9 22.1 13.9 57 5.3 E 11 17 6 9 1015.2 1015.1 0.0
24/01:30am 20.1 20.6 14.0 68 3.5 NNW 4 9 2 5 1015.4 1015.3 0.0
24/01:00am 21.2 20.9 13.4 61 4.5 ENE 7 11 4 6 1015.4 1015.3 0.0
24/12:30am 22.4 22.1 14.3 60 4.7 ESE 9 15 5 8 1016.0 1015.9 0.0
24/12:00am 21.7 21.9 14.1 62 4.4 SE 6 9 3 5 1015.9 1015.8 0.0
 
Date/Time
CDT
Temp
°C
App
Temp
°C
Dew
Point
°C
Rel
Hum
%
Delta-T
°C
Wind Press
QNH
hPa
Press
MSL
hPa
Rain since
9am
mm
Dir  Spd
km/h
Gust
km/h
Spd
kts
Gust
kts
23/11:30pm 20.9 21.6 13.4 62 4.3 SW 2 7 1 4 1016.2 1016.1 0.0
23/11:00pm 22.2 21.7 13.8 59 4.9 SE 9 17 5 9 1016.3 1016.2 0.0
23/10:30pm 21.9 21.4 13.8 60 4.7 SE 9 13 5 7 1016.3 1016.2 0.0
23/10:00pm 22.3 21.8 13.9 59 4.9 ESE 9 13 5 7 1016.2 1016.1 0.0
23/09:30pm 22.9 20.9 13.9 57 5.2 SE 17 24 9 13 1016.1 1016.0 0.0
23/09:00pm 23.3 21.7 13.8 55 5.5 SE 15 22 8 12 1015.8 1015.7 0.0
23/08:30pm 24.3 22.7 13.8 52 6.2 SE 15 22 8 12 1015.4 1015.3 0.0
23/08:00pm 25.3 24.0 13.8 49 6.8 SE 13 20 7 11 1014.9 1014.8 0.0
23/07:30pm 26.2 25.3 13.7 46 7.4 ESE 11 17 6 9 1014.7 1014.6 0.0
23/07:00pm 27.3 25.5 13.3 42 8.3 ESE 15 20 8 11 1014.2 1014.1 0.0
23/06:30pm 28.3 26.0 13.0 39 9.0 ESE 17 28 9 15 1014.2 1014.1 0.0
23/06:00pm 28.9 27.8 13.2 38 9.3 ESE 11 22 6 12 1014.1 1014.0 0.0
23/05:30pm 27.4 26.8 15.7 48 7.2 SW 13 17 7 9 1014.1 1014.0 0.0
23/05:00pm 26.4 24.8 16.1 53 6.3 W 19 24 10 13 1014.3 1014.2 0.0
23/04:30pm 26.1 24.2 15.8 53 6.3 WSW 20 28 11 15 1014.5 1014.4 0.0
23/04:00pm 26.3 24.5 16.0 53 6.3 WSW 20 24 11 13 1014.5 1014.4 0.0
23/03:30pm 25.3 22.9 15.3 54 6.0 WSW 22 28 12 15 1014.7 1014.6 0.0
23/03:00pm 24.8 21.9 15.1 54 5.8 SW 24 30 13 16 1014.9 1014.8 0.0
23/02:30pm 25.1 22.4 14.6 52 6.3 WSW 22 32 12 17 1015.2 1015.1 0.0
23/02:00pm 24.9 22.1 14.4 52 6.2 WSW 22 28 12 15 1015.4 1015.3 0.0
23/01:30pm 24.7 21.8 13.9 51 6.3 W 22 32 12 17 1016.0 1015.9 0.0
23/01:00pm 24.7 23.9 13.0 48 6.8 SSW 9 17 5 9 1016.8 1016.7 0.0
23/12:30pm 24.5 24.0 13.7 51 6.3 SSW 9 17 5 9 1017.3 1017.2 0.0
23/12:00pm 23.3 22.5 12.9 52 6.0 ESE 9 15 5 8 1017.8 1017.7 0.0
23/11:30am 22.1 21.2 12.6 55 5.4 ESE 9 13 5 7 1018.3 1018.2 0.0
23/11:00am 22.1 21.9 13.5 58 5.0 ESE 7 13 4 7 1018.7 1018.6 0.0
23/10:30am 20.8 20.0 13.0 61 4.4 E 9 17 5 9 1018.4 1018.3 0.0
23/10:00am 19.7 19.1 13.4 67 3.6 ESE 9 15 5 8 1018.4 1018.3 0.0
23/09:30am 19.2 18.5 13.2 68 3.4 S 9 13 5 7 1018.9 1018.8 0.0
23/09:00am 18.7 17.6 13.1 70 3.2 SE 11 15 6 8 1018.6 1018.5 0.0
23/08:30am 18.4 17.3 13.1 71 3.0 SE 11 17 6 9 1018.4 1018.3 0.0
23/08:00am 18.0 17.6 13.1 73 2.8 SE 7 11 4 6 1018.4 1018.3 0.0
23/07:30am 17.9 17.1 13.0 73 2.7 ESE 9 13 5 7 1018.0 1017.9 0.0
23/07:00am 18.0 16.9 13.1 73 2.8 ESE 11 17 6 9 1017.6 1017.5 0.0
23/06:30am 17.7 16.6 13.2 75 2.5 ENE 11 13 6 7 1017.4 1017.3 0.0
23/06:00am 17.6 16.2 13.3 76 2.4 E 13 19 7 10 1017.0 1016.9 0.0
23/05:30am 17.4 16.7 13.3 77 2.3 ESE 9 15 5 8 1016.8 1016.7 0.0
23/05:00am 17.4 16.4 13.3 77 2.3 ESE 11 15 6 8 1017.2 1017.1 0.0
23/04:30am 17.6 16.6 13.3 76 2.4 SE 11 17 6 9 1017.4 1017.3 0.0
23/04:00am 17.7 15.9 13.4 76 2.4 SSE 15 22 8 12 1017.6 1017.5 0.0
23/03:30am 17.8 16.8 13.3 75 2.5 SSE 11 15 6 8 1017.6 1017.5 0.0
23/03:00am 18.1 16.4 13.6 75 2.6 SE 15 20 8 11 1017.4 1017.3 0.0
23/02:30am 18.1 17.1 13.4 74 2.7 SE 11 17 6 9 1017.4 1017.3 0.0
23/02:00am 18.5 16.7 13.4 72 2.9 SE 15 22 8 12 1017.4 1017.3 0.0
23/01:30am 18.8 17.5 13.6 72 3.0 SE 13 20 7 11 1017.4 1017.3 0.0
23/01:00am 19.0 17.0 13.8 72 3.0 SE 17 22 9 12 1017.7 1017.6 0.0
23/12:30am 19.2 17.2 13.8 71 3.1 SE 17 24 9 13 1017.9 1017.8 0.0
23/12:00am 19.1 17.9 13.9 72 3.0 SE 13 20 7 11 1018.1 1018.0 0.0
 
Date/Time
CDT
Temp
°C
App
Temp
°C
Dew
Point
°C
Rel
Hum
%
Delta-T
°C
Wind Press
QNH
hPa
Press
MSL
hPa
Rain since
9am
mm
Dir  Spd
km/h
Gust
km/h
Spd
kts
Gust
kts
22/11:30pm 19.3 19.1 13.7 70 3.2 SSE 7 13 4 7 1018.2 1018.1 0.0
22/11:00pm 19.3 19.2 13.9 71 3.1 SE 7 9 4 5 1018.0 1017.9 0.0
22/10:30pm 19.6 19.5 14.0 70 3.2 SE 7 11 4 6 1017.9 1017.8 0.0
22/10:00pm 19.8 19.3 13.7 68 3.5 SSE 9 15 5 8 1018.0 1017.9 0.0
22/09:30pm 20.4 19.5 13.8 66 3.8 SSE 11 15 6 8 1017.6 1017.5 0.0
22/09:00pm 21.1 20.2 13.8 63 4.2 SSE 11 15 6 8 1017.6 1017.5 0.0
22/08:30pm 21.1 19.4 13.5 62 4.4 SSE 15 20 8 11 1017.5 1017.4 0.0
22/08:00pm 21.2 19.9 13.6 62 4.4 SE 13 19 7 10 1017.2 1017.1 0.0
22/07:30pm 21.3 19.6 13.7 62 4.4 SE 15 22 8 12 1016.8 1016.7 0.0
22/07:00pm 21.4 19.0 13.8 62 4.4 SE 19 26 10 14 1016.5 1016.4 0.0
22/06:30pm 21.6 19.2 13.8 61 4.5 SE 19 26 10 14 1016.4 1016.3 0.0
22/06:00pm 22.0 19.6 13.9 60 4.7 SE 19 28 10 15 1016.1 1016.0 0.0
22/05:30pm 22.3 19.7 13.9 59 4.9 SE 20 32 11 17 1015.8 1015.7 0.0
22/05:00pm 22.4 19.9 14.0 59 4.9 SE 20 28 11 15 1015.6 1015.5 0.0
22/04:30pm 22.4 20.4 14.0 59 4.9 SE 17 28 9 15 1015.7 1015.6 0.0
22/04:00pm 23.0 20.7 14.0 57 5.3 SE 19 28 10 15 1015.9 1015.8 0.0
22/03:30pm 23.2 21.4 14.5 58 5.1 SSE 17 24 9 13 1016.1 1016.0 0.0
22/03:00pm 22.4 20.0 13.7 58 5.0 SSE 19 26 10 14 1016.2 1016.1 0.0
22/02:30pm 22.7 21.2 14.3 59 4.9 SSE 15 22 8 12 1016.1 1016.0 0.0
22/02:00pm 22.7 20.3 14.3 59 4.9 SE 20 28 11 15 1016.4 1016.3 0.0
22/01:30pm 22.0 19.6 14.4 62 4.5 SSE 20 28 11 15 1016.8 1016.7 0.0
22/01:00pm 21.6 19.1 14.0 62 4.4 SE 20 28 11 15 1016.9 1016.8 0.0
22/12:30pm 21.2 19.0 14.4 65 4.0 SSE 19 26 10 14 1017.3 1017.2 0.0
22/12:00pm 20.4 18.0 14.3 68 3.5 SE 20 28 11 15 1017.4 1017.3 0.0
22/11:30am 20.5 18.4 14.6 69 3.4 SE 19 24 10 13 1017.5 1017.4 0.0
22/11:00am 20.5 19.1 14.6 69 3.4 SE 15 20 8 11 1017.6 1017.5 0.0

Latest Capital City Observations: Canberra | Sydney | Melbourne | Brisbane | Adelaide | Perth | Hobart | Darwin

Other Formats:

Comma delimited format used in spreadsheet applications
http://www.bom.gov.au/fwo/IDS60901/IDS60901.95676.axf

JavaScript Object Notation format (JSON) in row-major order
http://www.bom.gov.au/fwo/IDS60901/IDS60901.95676.json